,,PA_Meas_PMT16A,,PR_Meas_QMR101_102,,RH_Meas_QMH101,,SR_Meas_QMS101,,TA_Meas_QMH101,,GenWind,,GenWind,
time,status,PA,status,PR,status,RH,status,SR,status,TA,status,DirAvg,status,SpdAvg,
2016-10-07, 00:00:04,VALID,917.548,VALID,0,VALID,78.7118,VALID,37.8193,VALID,23.5821,VALID,360,VALID,0,
2016-10-07, 00:01:04,VALID,917.402,VALID,0,VALID,79.5732,VALID,33.4142,VALID,23.6211,VALID,360,VALID,0,
2016-10-07, 00:02:04,VALID,919.258,VALID,0,VALID,80.1145,VALID,32.0175,VALID,23.5626,VALID,1,VALID,0,
2016-10-07, 16:02:04,VALID,920.408,VALID,0,INVALID,114.229,VALID,124.309,VALID,18.7098,VALID,10,VALID,2.28359,
2016-10-07, 16:44:04,VALID,920.794,VALID,0,INVALID,114.206,VALID,152.029,VALID,18.7878,VALID,346,VALID,1.18516,
2016-10-07, 16:45:04,VALID,920.716,VALID,0,INVALID,114.298,VALID,172.121,VALID,18.7474,VALID,12,VALID,1.06992,
2016-10-07, 16:46:04,VALID,920.722,VALID,0,INVALID,114.176,VALID,177.493,VALID,18.8839,VALID,309,VALID,0.559375,
2016-10-07, 16:47:04,VALID,920.721,VALID,0.2,INVALID,114.054,VALID,200.915,VALID,19.0023,VALID,3,VALID,0.802344,
2016-10-07, 16:48:04,VALID,920.72,VALID,0,INVALID,113.917,VALID,195.65,VALID,19.1568,VALID,34,VALID,1.31836,
2016-10-07, 16:49:04,VALID,920.704,VALID,0,INVALID,113.932,VALID,206.287,VALID,19.1958,VALID,7,VALID,1.19219,
2016-10-07, 16:50:04,VALID,920.68,VALID,0,INVALID,114.016,VALID,181.468,VALID,19.1763,VALID,44,VALID,1.99219,
2016-10-07, 16:51:04,VALID,920.701,VALID,0,INVALID,113.955,VALID,178.782,VALID,19.3143,VALID,22,VALID,1.64648,
2016-10-07, 16:52:04,VALID,920.747,VALID,0,INVALID,114.008,VALID,176.418,VALID,19.2933,VALID,345,VALID,0.791797,
2016-10-07, 16:53:04,VALID,920.631,VALID,0,INVALID,114.115,VALID,229.817,VALID,19.2153,VALID,307,VALID,1.02578,
2016-10-07, 16:54:04,VALID,920.658,VALID,0,INVALID,114.138,VALID,221.436,VALID,19.2543,VALID,324,VALID,1.06406,
2016-10-07, 16:55:04,VALID,920.608,VALID,0.2,INVALID,114.168,VALID,216.601,VALID,19.2933,VALID,19,VALID,1.6293,
2016-10-07, 16:56:04,VALID,920.589,VALID,0,INVALID,114.229,VALID,211.014,VALID,19.3143,VALID,9,VALID,1.66484,
2016-10-07, 16:57:04,VALID,920.558,VALID,0,INVALID,114.237,VALID,213.163,VALID,19.3128,VALID,15,VALID,1.50586,
2016-10-07, 16:58:04,VALID,920.557,VALID,0,INVALID,114.267,VALID,215.527,VALID,19.3323,VALID,18,VALID,1.94414,
2016-10-07, 16:59:04,VALID,920.545,VALID,0,INVALID,114.237,VALID,223.048,VALID,19.3923,VALID,19,VALID,1.91992,
2016-10-07, 17:00:04,VALID,920.545,VALID,0,INVALID,114.214,VALID,228.957,VALID,19.4508,VALID,22,VALID,1.68086,
2016-10-07, 17:01:04,VALID,920.588,VALID,0.2,INVALID,114.29,VALID,230.032,VALID,19.4313,VALID,353,VALID,2.50234,
2016-10-07, 17:02:04,VALID,920.552,VALID,0,INVALID,114.557,VALID,199.841,VALID,19.2558,VALID,348,VALID,1.91914,
2016-10-07, 17:03:04,VALID,920.559,VALID,0,INVALID,114.74,VALID,190.708,VALID,19.2168,VALID,26,VALID,2.02617,
2016-10-07, 17:04:04,VALID,920.527,VALID,0,INVALID,114.664,VALID,224.23,VALID,19.2363,VALID,3,VALID,2.04805,
2016-10-07, 17:05:04,VALID,920.537,VALID,0,INVALID,114.664,VALID,225.949,VALID,19.2363,VALID,38,VALID,1.70938,
2016-10-07, 17:06:04,VALID,920.454,VALID,0,INVALID,114.732,VALID,236.478,VALID,19.1778,VALID,340,VALID,3.14492,
2016-10-07, 17:07:04,VALID,920.473,VALID,0,INVALID,114.793,VALID,269.355,VALID,19.1778,VALID,38,VALID,2.27031,
2016-10-07, 17:08:04,VALID,920.453,VALID,0.2,INVALID,114.816,VALID,295.463,VALID,19.1373,VALID,12,VALID,2.30781,
2016-10-07, 17:09:04,VALID,920.476,VALID,0,INVALID,114.649,VALID,302.554,VALID,19.2348,VALID,356,VALID,2.00312,
2016-10-07, 17:10:04,VALID,920.426,VALID,0,INVALID,114.656,VALID,239.057,VALID,19.2543,VALID,349,VALID,1.1418,
2016-10-07, 17:11:04,VALID,920.449,VALID,0,INVALID,114.687,VALID,271.719,VALID,19.2738,VALID,334,VALID,1.83242,
2016-10-07, 17:12:04,VALID,920.477,VALID,0,INVALID,114.519,VALID,292.562,VALID,19.4103,VALID,7,VALID,2.10859,
2016-10-07, 17:13:04,VALID,920.446,VALID,0,INVALID,114.458,VALID,256.784,VALID,19.4688,VALID,23,VALID,2.12383,
2016-10-07, 17:14:04,VALID,920.445,VALID,0,INVALID,114.412,VALID,241.85,VALID,19.5678,VALID,27,VALID,1.57187,
2016-10-07, 17:15:04,VALID,920.477,VALID,0,INVALID,114.549,VALID,189.526,VALID,19.5273,VALID,15,VALID,1.70547,
2016-10-07, 17:16:04,VALID,920.462,VALID,0,INVALID,114.694,VALID,167.716,VALID,19.5078,VALID,31,VALID,2.03555,
2016-10-07, 17:17:04,VALID,920.41,VALID,0.2,INVALID,114.809,VALID,142.897,VALID,19.4883,VALID,31,VALID,2.63398,
2016-10-07, 17:18:04,VALID,920.531,VALID,0,INVALID,115.022,VALID,137.74,VALID,19.3893,VALID,5,VALID,1.11992,
2016-10-07, 17:19:04,VALID,920.527,VALID,0,INVALID,115.152,VALID,141.393,VALID,19.3323,VALID,308,VALID,0,
2016-10-07, 17:20:04,VALID,920.546,VALID,0,INVALID,115.304,VALID,159.443,VALID,19.2738,VALID,200,VALID,0.187891,
2016-10-07, 17:21:04,VALID,920.549,VALID,0,INVALID,115.304,VALID,171.584,VALID,19.2334,VALID,198,VALID,0,
2016-10-07, 17:22:04,VALID,920.516,VALID,0,INVALID,115.495,VALID,175.989,VALID,19.1958,VALID,36,VALID,1.96289,
2016-10-07, 17:23:04,VALID,920.582,VALID,0,INVALID,115.388,VALID,171.584,VALID,19.2334,VALID,287,VALID,0.213281,
2016-10-07, 17:24:04,VALID,920.581,VALID,0,INVALID,115.548,VALID,171.476,VALID,19.1763,VALID,206,VALID,0.697266,
2016-10-07, 17:25:04,VALID,920.581,VALID,0,INVALID,115.487,VALID,156.864,VALID,19.1958,VALID,33,VALID,0.202344,
2016-10-07, 17:26:04,VALID,920.593,VALID,0,INVALID,115.373,VALID,160.195,VALID,19.2738,VALID,30,VALID,0,
2016-10-07, 17:27:04,VALID,920.581,VALID,0,INVALID,115.266,VALID,172.013,VALID,19.3323,VALID,232,VALID,0,
2016-10-07, 17:28:04,VALID,920.56,VALID,0,INVALID,115.289,VALID,189.311,VALID,19.3128,VALID,195,VALID,0,
2016-10-07, 17:29:04,VALID,920.605,VALID,0,INVALID,115.335,VALID,184.691,VALID,19.3308,VALID,192,VALID,0,
2016-10-07, 17:30:04,VALID,920.584,VALID,0,INVALID,115.403,VALID,198.551,VALID,19.3518,VALID,301,VALID,0,
2016-10-07, 17:31:04,VALID,920.561,VALID,0,INVALID,115.365,VALID,192.964,VALID,19.4298,VALID,185,VALID,0,
2016-10-07, 17:32:04,VALID,920.558,VALID,0,INVALID,115.518,VALID,177.923,VALID,19.4103,VALID,18,VALID,1.40508,
2016-10-07, 17:33:04,VALID,920.512,VALID,0,INVALID,115.83,VALID,176.848,VALID,19.3323,VALID,14,VALID,1.75898,
2016-10-07, 17:34:04,VALID,920.524,VALID,0,INVALID,115.739,VALID,190.708,VALID,19.4103,VALID,40,VALID,1.44102,
2016-10-07, 17:35:04,VALID,920.526,VALID,0,INVALID,115.815,VALID,189.419,VALID,19.3308,VALID,234,VALID,1.05547,
2016-10-07, 17:36:04,VALID,920.518,VALID,0,INVALID,115.967,VALID,193.824,VALID,19.2933,VALID,232,VALID,0.168359,
2016-10-07, 17:37:04,VALID,920.455,VALID,0,INVALID,115.716,VALID,216.279,VALID,19.4298,VALID,44,VALID,1.37734,
2016-10-07, 17:38:04,VALID,920.475,VALID,0.2,INVALID,115.708,VALID,226.271,VALID,19.4478,VALID,217,VALID,0.00585938,
2016-10-07, 17:39:04,VALID,920.481,VALID,0,INVALID,115.838,VALID,232.503,VALID,19.4298,VALID,242,VALID,0.807813,
2016-10-07, 17:40:04,VALID,920.47,VALID,0,INVALID,115.83,VALID,250.875,VALID,19.5078,VALID,239,VALID,0,
2016-10-07, 17:41:04,VALID,920.485,VALID,0,INVALID,115.952,VALID,227.131,VALID,19.4883,VALID,263,VALID,0.948438,
2016-10-07, 17:42:04,VALID,920.494,VALID,0,INVALID,116.196,VALID,232.18,VALID,19.4298,VALID,263,VALID,0.86875,
2016-10-07, 17:43:04,VALID,920.474,VALID,0,INVALID,116.181,VALID,224.23,VALID,19.4883,VALID,254,VALID,0.797656,
2016-10-07, 17:44:04,VALID,920.432,VALID,0,INVALID,116.394,VALID,213.7,VALID,19.4298,VALID,19,VALID,0.122266,
2016-10-07, 17:45:04,VALID,920.423,VALID,0,INVALID,116.227,VALID,221.329,VALID,19.5468,VALID,331,VALID,0,
2016-10-07, 17:46:04,VALID,920.361,VALID,0,INVALID,116.31,VALID,237.445,VALID,19.5663,VALID,6,VALID,1.17656,
2016-10-07, 17:47:04,VALID,920.406,VALID,0,INVALID,116.547,VALID,238.842,VALID,19.5063,VALID,227,VALID,0.713281,
2016-10-07, 17:48:04,VALID,920.374,VALID,0,INVALID,116.608,VALID,236.908,VALID,19.5273,VALID,266,VALID,2.26406,
2016-10-07, 17:49:04,VALID,920.345,VALID,0,INVALID,116.974,VALID,213.056,VALID,19.3908,VALID,296,VALID,0.864844,
2016-10-07, 17:50:04,VALID,920.333,VALID,0,INVALID,116.836,VALID,200.27,VALID,19.4493,VALID,334,VALID,0.00117188,
2016-10-07, 17:51:04,VALID,920.302,VALID,0,INVALID,116.554,VALID,201.452,VALID,19.5858,VALID,68,VALID,0.609766,
2016-10-07, 17:52:04,VALID,920.331,VALID,0,INVALID,116.509,VALID,186.088,VALID,19.6443,VALID,171,VALID,1.08789,
2016-10-07, 17:53:04,VALID,920.322,VALID,0,INVALID,116.654,VALID,161.484,VALID,19.6038,VALID,271,VALID,1.05039,
2016-10-07, 17:54:04,VALID,920.32,VALID,0,INVALID,116.821,VALID,142.36,VALID,19.6053,VALID,195,VALID,1.02969,
2016-10-07, 17:55:04,VALID,920.273,VALID,0,INVALID,116.897,VALID,188.989,VALID,19.5843,VALID,245,VALID,0.655078,
2016-10-07, 17:56:04,VALID,920.229,VALID,0,INVALID,116.836,VALID,249.908,VALID,19.6443,VALID,239,VALID,1.20703,
2016-10-07, 17:57:04,VALID,920.236,VALID,0,INVALID,116.958,VALID,261.404,VALID,19.6248,VALID,255,VALID,0.820313,
2016-10-07, 17:58:04,VALID,920.201,VALID,0,INVALID,116.966,VALID,280.207,VALID,19.6638,VALID,332,VALID,1.47617,
2016-10-07, 17:59:04,VALID,920.204,VALID,0,INVALID,116.646,VALID,189.741,VALID,19.8588,VALID,28,VALID,0.789453,
2016-10-07, 18:00:04,VALID,920.188,VALID,0,INVALID,116.707,VALID,178.352,VALID,19.8198,VALID,239,VALID,0.936719,
2016-10-07, 18:01:04,VALID,920.18,VALID,0,INVALID,117.035,VALID,237.338,VALID,19.7403,VALID,207,VALID,0.0289063,
2016-10-07, 18:02:04,VALID,920.199,VALID,0,INVALID,117.332,VALID,241.743,VALID,19.7028,VALID,297,VALID,0.61875,
2016-10-07, 18:03:04,VALID,920.194,VALID,0,INVALID,117.347,VALID,241.313,VALID,19.7013,VALID,265,VALID,0,
2016-10-07, 18:04:04,VALID,920.156,VALID,0,INVALID,117.439,VALID,198.874,VALID,19.7208,VALID,16,VALID,2.22969,
2016-10-07, 18:05:04,VALID,920.156,VALID,0,INVALID,117.553,VALID,209.725,VALID,19.6818,VALID,89,VALID,0.326562,
2016-10-07, 18:06:04,VALID,920.072,VALID,0,INVALID,117.66,VALID,229.387,VALID,19.6428,VALID,189,VALID,0.141406,
2016-10-07, 18:07:04,VALID,920.119,VALID,0,INVALID,117.751,VALID,233.04,VALID,19.6233,VALID,348,VALID,1.63125,
2016-10-07, 18:08:04,VALID,920.072,VALID,0,INVALID,117.805,VALID,241.635,VALID,19.5843,VALID,278,VALID,0.544141,
2016-10-07, 18:09:04,VALID,920.031,VALID,0,INVALID,117.972,VALID,208.866,VALID,19.5258,VALID,48,VALID,0.912891,
2016-10-07, 18:10:04,VALID,920.048,VALID,0,INVALID,117.965,VALID,187.055,VALID,19.6053,VALID,334,VALID,1.10664,
2016-10-07, 18:11:04,VALID,920.047,VALID,0,INVALID,117.805,VALID,190.923,VALID,19.6638,VALID,11,VALID,0.777344,
2016-10-07, 18:12:04,VALID,920.056,VALID,0,INVALID,117.736,VALID,281.388,VALID,19.7208,VALID,316,VALID,1.31328,
2016-10-07, 18:13:04,VALID,920.014,VALID,0,INVALID,118.392,VALID,233.47,VALID,19.4478,VALID,283,VALID,1.67891,
2016-10-07, 18:14:04,VALID,920.019,VALID,0,INVALID,118.346,VALID,189.741,VALID,19.4688,VALID,11,VALID,0.321094,
2016-10-07, 18:15:04,VALID,920.035,VALID,0,INVALID,118.308,VALID,173.41,VALID,19.4478,VALID,252,VALID,1.70273,
2016-10-07, 18:16:04,VALID,919.995,VALID,0,INVALID,117.896,VALID,168.468,VALID,19.5843,VALID,28,VALID,1.41523,
2016-10-07, 18:17:04,VALID,920,VALID,0,INVALID,117.683,VALID,221.329,VALID,19.7223,VALID,333,VALID,0.053125,
2016-10-07, 18:18:04,VALID,919.978,VALID,0,INVALID,117.744,VALID,221.973,VALID,19.7418,VALID,275,VALID,0.0589844,
2016-10-07, 18:19:04,VALID,919.884,VALID,0,INVALID,118.247,VALID,176.096,VALID,19.6053,VALID,21,VALID,2.7332,
2016-10-07, 18:20:04,VALID,919.902,VALID,0,INVALID,118.132,VALID,159.98,VALID,19.6428,VALID,199,VALID,1.18516,
2016-10-07, 18:21:04,VALID,919.912,VALID,0,INVALID,118.171,VALID,165.997,VALID,19.7028,VALID,80,VALID,0.997266,
2016-10-07, 18:22:04,VALID,919.884,VALID,0,INVALID,118.071,VALID,196.617,VALID,19.7418,VALID,245,VALID,0.968359,
2016-10-07, 18:23:04,VALID,919.851,VALID,0,INVALID,118.338,VALID,250.875,VALID,19.7028,VALID,22,VALID,1.21016,
2016-10-07, 18:24:04,VALID,919.784,VALID,0,INVALID,118.224,VALID,366.159,VALID,19.7988,VALID,4,VALID,2.41289,
2016-10-07, 18:25:04,VALID,919.796,VALID,0,INVALID,118.193,VALID,353.589,VALID,19.8378,VALID,209,VALID,0.0289063,
2016-10-07, 18:26:04,VALID,919.829,VALID,0,INVALID,118.232,VALID,348.002,VALID,19.8963,VALID,21,VALID,0.983984,
2016-10-07, 18:27:04,VALID,919.787,VALID,0,INVALID,118.155,VALID,393.449,VALID,19.9728,VALID,15,VALID,1.60195,
2016-10-07, 18:28:04,VALID,919.765,VALID,0,INVALID,118.498,VALID,350.043,VALID,19.9758,VALID,331,VALID,0.654688,
2016-10-07, 18:29:04,VALID,919.795,VALID,0,INVALID,118.399,VALID,290.951,VALID,20.0523,VALID,105,VALID,0,
2016-10-07, 18:30:04,VALID,919.749,VALID,0,INVALID,118.399,VALID,275.801,VALID,20.1498,VALID,26,VALID,2.15781,
2016-10-07, 18:31:04,VALID,919.797,VALID,0,INVALID,118.575,VALID,272.686,VALID,20.1693,VALID,15,VALID,1.87383,
2016-10-07, 18:32:04,VALID,919.781,VALID,0,INVALID,118.361,VALID,253.454,VALID,20.3058,VALID,9,VALID,0.651563,
2016-10-07, 18:33:04,VALID,919.786,VALID,0,INVALID,118.735,VALID,269.892,VALID,20.2278,VALID,7,VALID,1.36016,
2016-10-07, 18:34:04,VALID,919.752,VALID,0,INVALID,118.857,VALID,239.594,VALID,20.2684,VALID,28,VALID,2.73555,
2016-10-07, 18:35:04,VALID,919.789,VALID,0,INVALID,118.704,VALID,206.072,VALID,20.3058,VALID,30,VALID,1.04727,
2016-10-07, 18:36:04,VALID,919.744,VALID,0,INVALID,118.864,VALID,212.519,VALID,20.3058,VALID,37,VALID,0.578906,
2016-10-07, 18:37:04,VALID,919.774,VALID,0,INVALID,119.055,VALID,204.138,VALID,20.2863,VALID,320,VALID,0.232031,
2016-10-07, 18:38:04,VALID,919.749,VALID,0,INVALID,119.017,VALID,213.163,VALID,20.3643,VALID,23,VALID,0,
2016-10-07, 18:39:04,VALID,919.722,VALID,0,INVALID,119.589,VALID,234.222,VALID,20.2278,VALID,346,VALID,1.08359,
2016-10-07, 18:40:04,VALID,919.718,VALID,0,INVALID,119.657,VALID,213.056,VALID,20.1888,VALID,286,VALID,0.0125,
2016-10-07, 18:41:04,VALID,919.725,VALID,0,INVALID,119.779,VALID,235.081,VALID,20.1693,VALID,307,VALID,0.888672,
2016-10-07, 18:42:04,VALID,919.726,VALID,0,INVALID,119.886,VALID,289.876,VALID,20.1513,VALID,278,VALID,0.196094,
2016-10-07, 18:43:04,VALID,919.687,VALID,0,INVALID,119.893,VALID,314.695,VALID,20.1498,VALID,46,VALID,1.34492,
2016-10-07, 18:44:04,VALID,919.643,VALID,0,INVALID,120.038,VALID,288.157,VALID,20.1318,VALID,36,VALID,1.30664,
2016-10-07, 18:45:04,VALID,919.686,VALID,0,INVALID,119.977,VALID,256.462,VALID,20.1498,VALID,272,VALID,0.262109,
2016-10-07, 18:46:04,VALID,919.621,VALID,0,INVALID,120.038,VALID,240.238,VALID,20.1108,VALID,37,VALID,1.91602,
2016-10-07, 18:47:04,VALID,919.574,VALID,0,INVALID,119.985,VALID,235.618,VALID,20.2278,VALID,48,VALID,0.977734,
2016-10-07, 18:48:04,VALID,919.599,VALID,0,INVALID,119.924,VALID,234.974,VALID,20.2863,VALID,44,VALID,0.695703,
2016-10-07, 18:49:04,VALID,919.567,VALID,0,INVALID,119.954,VALID,198.659,VALID,20.3058,VALID,351,VALID,1.44844,
2016-10-07, 18:50:04,VALID,919.56,VALID,0,INVALID,120.023,VALID,217.783,VALID,20.2863,VALID,183,VALID,0.0121094,
2016-10-07, 18:51:04,VALID,919.537,VALID,0,INVALID,120.015,VALID,204.89,VALID,20.3058,VALID,20,VALID,1.30781,
2016-10-07, 18:52:04,VALID,919.554,VALID,0,INVALID,119.977,VALID,184.262,VALID,20.2083,VALID,24,VALID,1.49453,
2016-10-07, 18:53:04,VALID,919.591,VALID,0,INVALID,119.985,VALID,176.096,VALID,20.2278,VALID,5,VALID,0.805469,
2016-10-07, 18:54:04,VALID,919.623,VALID,0,INVALID,119.977,VALID,186.625,VALID,20.3058,VALID,302,VALID,1.05117,
2016-10-07, 18:55:04,VALID,919.596,VALID,0,INVALID,119.985,VALID,211.874,VALID,20.2083,VALID,285,VALID,1.4375,
2016-10-07, 18:56:04,VALID,919.557,VALID,0,INVALID,119.977,VALID,182.543,VALID,20.1288,VALID,312,VALID,2.01172,
2016-10-07, 18:57:04,VALID,919.597,VALID,0,INVALID,119.947,VALID,204.568,VALID,20.1303,VALID,286,VALID,1.23086,
2016-10-07, 18:58:04,VALID,919.579,VALID,0,INVALID,119.909,VALID,264.305,VALID,20.0523,VALID,194,VALID,0.841016,
2016-10-07, 18:59:04,VALID,919.534,VALID,0,INVALID,119.924,VALID,256.784,VALID,20.1678,VALID,13,VALID,2.39375,
2016-10-07, 19:00:04,VALID,919.524,VALID,0,INVALID,120.031,VALID,176.633,VALID,20.1693,VALID,360,VALID,2.24492,
2016-10-07, 19:01:04,VALID,919.549,VALID,0,INVALID,119.985,VALID,183.509,VALID,20.2263,VALID,320,VALID,0.863281,
2016-10-07, 19:02:04,VALID,919.528,VALID,0,INVALID,119.985,VALID,224.767,VALID,20.2083,VALID,231,VALID,0.81875,
2016-10-07, 19:03:04,VALID,919.47,VALID,0,INVALID,119.993,VALID,202.419,VALID,20.2668,VALID,28,VALID,1.8082,
2016-10-07, 19:04:04,VALID,919.481,VALID,0,INVALID,119.954,VALID,205.427,VALID,20.3643,VALID,355,VALID,1.28477,
2016-10-07, 19:05:04,VALID,919.448,VALID,0,INVALID,120.008,VALID,150.632,VALID,20.3238,VALID,19,VALID,2.46445,
2016-10-07, 19:06:04,VALID,919.484,VALID,0,INVALID,119.977,VALID,147.409,VALID,20.3643,VALID,26,VALID,1.0793,
2016-10-07, 19:07:04,VALID,919.502,VALID,0,INVALID,120.084,VALID,117.97,VALID,20.2473,VALID,290,VALID,1.70977,
2016-10-07, 19:08:04,VALID,919.671,VALID,0,INVALID,119.993,VALID,110.342,VALID,20.0718,VALID,320,VALID,1.98555,
2016-10-07, 19:09:04,VALID,919.513,VALID,0,INVALID,119.977,VALID,119.797,VALID,20.0913,VALID,154,VALID,0.261328,
2016-10-07, 19:10:04,VALID,919.504,VALID,0.2,INVALID,120.008,VALID,125.599,VALID,20.1123,VALID,103,VALID,0.864453,
2016-10-07, 19:11:04,VALID,919.558,VALID,0,INVALID,120,VALID,113.136,VALID,20.0703,VALID,125,VALID,0.00351562,
2016-10-07, 19:12:04,VALID,919.634,VALID,0,INVALID,119.985,VALID,107.978,VALID,20.0313,VALID,137,VALID,0,
2016-10-07, 19:13:04,VALID,919.618,VALID,0,INVALID,119.977,VALID,108.301,VALID,20.0133,VALID,188,VALID,0,
2016-10-07, 19:14:04,VALID,919.571,VALID,0.2,INVALID,119.993,VALID,133.12,VALID,19.9743,VALID,252,VALID,0,
2016-10-07, 19:15:04,VALID,919.522,VALID,0,INVALID,120.008,VALID,120.012,VALID,19.9368,VALID,291,VALID,2.84883,
2016-10-07, 19:16:04,VALID,919.497,VALID,0.2,INVALID,120.008,VALID,123.45,VALID,19.8783,VALID,273,VALID,0.769531,
2016-10-07, 19:17:04,VALID,919.45,VALID,0,INVALID,119.947,VALID,140.426,VALID,19.8573,VALID,236,VALID,0.0207031,
2016-10-07, 19:18:04,VALID,919.422,VALID,0,INVALID,119.886,VALID,137.847,VALID,19.8768,VALID,289,VALID,1.19766,
2016-10-07, 19:19:04,VALID,919.503,VALID,0,INVALID,119.916,VALID,132.582,VALID,19.7988,VALID,212,VALID,0.933594,
2016-10-07, 19:20:04,VALID,919.493,VALID,0.2,INVALID,119.871,VALID,175.237,VALID,19.8393,VALID,161,VALID,0.338672,
2016-10-07, 19:21:04,VALID,919.415,VALID,0,INVALID,119.794,VALID,169.542,VALID,19.8588,VALID,105,VALID,0.411328,
2016-10-07, 19:22:04,VALID,919.408,VALID,0,INVALID,119.711,VALID,145.583,VALID,19.8378,VALID,42,VALID,2.2125,
2016-10-07, 19:23:04,VALID,919.45,VALID,0,INVALID,119.695,VALID,147.194,VALID,19.8573,VALID,84,VALID,0.875391,
2016-10-07, 19:24:04,VALID,919.407,VALID,0,INVALID,119.665,VALID,202.419,VALID,19.8783,VALID,256,VALID,0.860156,
2016-10-07, 19:25:04,VALID,919.411,VALID,0.2,INVALID,119.489,VALID,249.371,VALID,19.8963,VALID,331,VALID,2.29727,
2016-10-07, 19:26:04,VALID,919.374,VALID,0,INVALID,119.634,VALID,246.577,VALID,19.8378,VALID,127,VALID,0.448438,
2016-10-07, 19:27:04,VALID,919.308,VALID,0,INVALID,119.726,VALID,249.693,VALID,19.8573,VALID,52,VALID,2.66367,
2016-10-07, 19:28:04,VALID,919.379,VALID,0,INVALID,119.726,VALID,277.198,VALID,19.8573,VALID,244,VALID,1.32773,
2016-10-07, 19:29:04,VALID,919.396,VALID,0,INVALID,119.657,VALID,233.792,VALID,19.9173,VALID,328,VALID,1.68398,
2016-10-07, 19:30:04,VALID,919.371,VALID,0,INVALID,119.863,VALID,227.238,VALID,19.8393,VALID,306,VALID,0.780469,
2016-10-07, 19:31:04,VALID,919.369,VALID,0,INVALID,119.832,VALID,230.032,VALID,19.8378,VALID,10,VALID,0.00195313,
2016-10-07, 19:32:04,VALID,919.411,VALID,0,INVALID,119.726,VALID,218.643,VALID,19.9173,VALID,82,VALID,0,
2016-10-07, 19:33:04,VALID,919.327,VALID,0,INVALID,119.543,VALID,195.113,VALID,19.9938,VALID,36,VALID,1.76328,
2016-10-07, 19:34:04,VALID,919.385,VALID,0,INVALID,119.489,VALID,223.155,VALID,20.0913,VALID,332,VALID,0.637891,
2016-10-07, 19:35:04,VALID,919.33,VALID,0,INVALID,119.573,VALID,196.51,VALID,20.0913,VALID,33,VALID,1.45664,
2016-10-07, 19:36:04,VALID,919.256,VALID,0,INVALID,119.802,VALID,200.593,VALID,20.0148,VALID,38,VALID,2.37227,
2016-10-07, 19:37:04,VALID,919.308,VALID,0,INVALID,119.596,VALID,211.444,VALID,20.0733,VALID,33,VALID,2.32617,
2016-10-07, 19:38:04,VALID,919.316,VALID,0,INVALID,119.398,VALID,242.387,VALID,20.1903,VALID,26,VALID,1.02695,
2016-10-07, 19:39:04,VALID,919.285,VALID,0,INVALID,119.512,VALID,261.942,VALID,20.1708,VALID,335,VALID,0.733203,
2016-10-07, 19:40:04,VALID,919.237,VALID,0,INVALID,119.497,VALID,283.645,VALID,20.1888,VALID,39,VALID,1.67422,
2016-10-07, 19:41:04,VALID,919.231,VALID,0,INVALID,119.505,VALID,273.438,VALID,20.2293,VALID,14,VALID,1.85664,
2016-10-07, 19:42:04,VALID,919.242,VALID,0,INVALID,119.642,VALID,251.95,VALID,20.2293,VALID,37,VALID,1.62227,
2016-10-07, 19:43:04,VALID,919.234,VALID,0,INVALID,119.703,VALID,257.429,VALID,20.1888,VALID,26,VALID,2.14063,
2016-10-07, 19:44:04,VALID,919.173,VALID,0,INVALID,119.55,VALID,273.653,VALID,20.2863,VALID,19,VALID,2.21641,
2016-10-07, 19:45:04,VALID,919.183,VALID,0,INVALID,120.092,VALID,290.843,VALID,20.1108,VALID,339,VALID,1.99297,
2016-10-07, 19:46:04,VALID,919.147,VALID,0,INVALID,120.046,VALID,266.776,VALID,20.1498,VALID,11,VALID,1.60703,
2016-10-07, 19:47:04,VALID,919.184,VALID,0,INVALID,119.756,VALID,277.091,VALID,20.2668,VALID,31,VALID,1.70469,
2016-10-07, 19:48:04,VALID,919.169,VALID,0,INVALID,119.65,VALID,255.71,VALID,20.4244,VALID,354,VALID,0.201172,
2016-10-07, 19:49:04,VALID,919.137,VALID,0,INVALID,120.031,VALID,225.734,VALID,20.2668,VALID,34,VALID,2.5,
2016-10-07, 19:50:04,VALID,919.112,VALID,0,INVALID,120.115,VALID,189.956,VALID,20.1903,VALID,344,VALID,0.841797,
2016-10-07, 19:51:04,VALID,919.11,VALID,0,INVALID,120.054,VALID,164.063,VALID,20.1498,VALID,34,VALID,1.32227,
2016-10-07, 19:52:04,VALID,919.115,VALID,0,INVALID,119.993,VALID,153.856,VALID,20.2668,VALID,14,VALID,1.4418,
2016-10-07, 19:53:04,VALID,919.1,VALID,0,INVALID,120.061,VALID,144.186,VALID,20.1888,VALID,3,VALID,1.41289,
2016-10-07, 19:54:04,VALID,919.066,VALID,0,INVALID,120.054,VALID,177.278,VALID,20.1888,VALID,359,VALID,0.999609,
2016-10-07, 19:55:04,VALID,919.079,VALID,0,INVALID,119.985,VALID,184.262,VALID,20.1108,VALID,360,VALID,2.65859,
2016-10-07, 19:56:04,VALID,919.102,VALID,0,INVALID,119.916,VALID,195.973,VALID,20.1708,VALID,17,VALID,1.4082,
2016-10-07, 19:57:04,VALID,919.022,VALID,0,INVALID,119.97,VALID,198.551,VALID,20.1888,VALID,40,VALID,0.898047,
2016-10-07, 19:58:04,VALID,919.002,VALID,0,INVALID,119.977,VALID,243.354,VALID,20.1123,VALID,4,VALID,2.57422,
2016-10-07, 19:59:04,VALID,918.991,VALID,0,INVALID,119.855,VALID,284.719,VALID,20.0523,VALID,24,VALID,1.55078,
2016-10-07, 20:00:04,VALID,918.978,VALID,0,INVALID,119.886,VALID,300.083,VALID,20.1498,VALID,16,VALID,0.993359,
2016-10-07, 20:01:04,VALID,918.934,VALID,0,INVALID,119.886,VALID,327.051,VALID,20.2278,VALID,26,VALID,1.89766,
2016-10-07, 20:02:04,VALID,918.934,VALID,0,INVALID,119.962,VALID,314.803,VALID,20.3058,VALID,5,VALID,1.74219,
2016-10-07, 20:03:04,VALID,918.89,VALID,0,INVALID,119.893,VALID,289.661,VALID,20.4228,VALID,33,VALID,1.49648,
2016-10-07, 20:04:04,VALID,918.848,VALID,0,INVALID,120.069,VALID,274.512,VALID,20.4228,VALID,358,VALID,2.24219,
2016-10-07, 20:05:04,VALID,918.832,VALID,0,INVALID,120,VALID,286.975,VALID,20.3838,VALID,13,VALID,1.70234,
2016-10-07, 20:06:04,VALID,918.818,VALID,0,INVALID,119.756,VALID,314.158,VALID,20.4228,VALID,258,VALID,1.10312,
2016-10-07, 20:07:04,VALID,918.799,VALID,0,INVALID,119.528,VALID,338.117,VALID,20.4423,VALID,352,VALID,0.0148437,
2016-10-07, 20:08:04,VALID,918.751,VALID,0,INVALID,119.116,VALID,365.622,VALID,20.4618,VALID,297,VALID,2.49453,
2016-10-07, 20:09:04,VALID,918.708,VALID,0,INVALID,118.59,VALID,335.646,VALID,20.5204,VALID,15,VALID,2.32383,
2016-10-07, 20:10:04,VALID,918.735,VALID,0,INVALID,118.254,VALID,323.828,VALID,20.5594,VALID,360,VALID,1.08203,
2016-10-07, 20:11:04,VALID,918.708,VALID,0,INVALID,118.064,VALID,344.134,VALID,20.5968,VALID,253,VALID,1.19766,